Location: Nelson
(41.2830°S, 173.2830°E)
Time: 22:39:29
(UTC+12:00)

Cosmos 2227 - Pass Details

Date: 24 January 2019
Orbit: 832 x 863 km, 71.0° (Epoch: 21 April)

Event Time Altitude Azimuth Distance (km) Brightness Sun altitude
Rises 21:33:54 0° 203° (SSW) 3,445 8.4 -7.1°
Reaches altitude 10° 21:36:23 10° 202° (SSW) 2,498 7.6 -7.5°
Maximum altitude 21:42:08 79° 114° (ESE) 868 4.2 -8.4°
Drops below altitude 10° 21:47:46 10° 27° (NNE) 2,451 6.1 -9.3°
Enters shadow 21:48:14 - 26° (NNE) 2,626 6.2 -9.3°
